ATLAS 5 CENTAUR DEB, 46661

Orbit data source: Space-Track

ATLAS 5 CENTAUR DEB, 46661 is space debris in HEO originally from a launch on Wed, 17 Oct 2018 UTC launched from the Air Force Eastern Test Range (AFETR). Debris objects in space refer to the collection of defunct objects orbiting the Earth. Examples of debris include non-operational satellites, rocket bodies, and fragments generated from explosions, collisions, or faulty payload assembly.

Loading next visibility...
Identifier
46661, 2018-079CP
Orbit
HEO
Country
Flag of USUS
Related business
Flag of USUnited Launch Alliance/Lockheed Martin (US)
Manufacturer
ULA Decatur
Mission
Spacecraft
Bus & Motor
Unknown
Mass
Unknown
Launch date (UTC)
2018-10-17 (8 years ago)
Launch vehicle
Unknown
Launch site
Air Force Eastern Test Range (AFETR)
Object type
Payload
Rocket body
Debris
Shape & HBR
Unknown shape, 1.1 m
Radar Cross Section
RCS unknown

Expand to show TLE details & history
Last TLE update: 22 hours ago

TLE from 22 hours ago
0 ATLAS 5 CENTAUR DEB
1 46661U 18079CP  26124.52247886 -.00000124  00000-0  00000-0 0  9993
2 46661  13.4472  40.5078 4524215 300.4917  22.5903  1.82965272 37224
Epoch: 2026-05-04T12:32Z
TLE epoch observation values (Epoch: 2026-05-04T12:32:22.173Z)
Latitude
0.00002°
Longitude
-10.06676°
Altitude
11,892.32 km
Speed
5.433 km/s
True Right ascension
02h 41m 44s
True Declination
0° 00' 00"
Sunlit
Object was in daylight at epoch
Visualization orbit readout
Latitude
Unknown
Longitude
Unknown
Altitude
Unknown
Speed
Unknown
Apparent Right ascension
Unknown
Apparent Declination
Unknown
Sunlit
N/A
Visualization observer readout
Local Sidereal Time
18:45:43
Azimuth
Unknown
Elevation
Unknown
Doppler factor
Unknown
Orbital elements
Apogee altitude
34,637.243 km
Perigee altitude
9,085.102 km
Semi-major axis
28,239.31 km
Eccentricity
0.45242
Inclination
13.4472°
RAAN
40.5078°
Arg. of periapsis
300.4917°
True anomaly
59.74155°
Mean anomaly
22.5903°
Eccentric anomaly
38.851°
Mean motion
0.45736 °/min
Orbital period
787.12 mins
BSTAR
0
Loading maneuver chart data...
Computing Atmospheric mass density...

Documentation

Showing up to 5 results
|